Shelbyville, IN

1:13 AM EDT on July 21, 2017 (GMT -0400)
Shelbyville Municipal

Weather History for KGEZ - November, 2012

Change the Weather History Date:

Wednesday, November 28, 2012

  Actual Average Record
Temperature  
Mean Temperature 35 °F 38 °F  
Max Temperature 45 °F 47 °F 66 °F (1998)
Min Temperature 24 °F 30 °F 17 °F (2013)
Degree Days  
Heating Degree Days 30 27  
Month to date heating degree days 645 584  
Since 1 July heating degree days 1094 1019  
Cooling Degree Days 0 0  
Month to date cooling degree days 0 0  
Year to date cooling degree days 1417 913  
Moisture  
Dew Point 23 °F    
Average Humidity 67    
Maximum Humidity 88    
Minimum Humidity 45    
Precipitation  
Precipitation 0.00 in 0.12 in 1.02 in (2001)
Month to date precipitation 0.62 3.48  
Year to date precipitation 25.70 40.04  
Sea Level Pressure  
Sea Level Pressure 30.37 in    
Wind  
Wind Speed 5 mph (SW)    
Max Wind Speed 12 mph    
Max Gust Speed 21 mph    
Visibility 9 miles    
Events      
T = Trace of Precipitation, MM = Missing Value Source: NWS Daily Summary

Daily Weather History Graph

Daily Weather History Graph

Search for Another Location

Airport or City:

Trip Planner

Search our weather history database for the weather conditions in past years. The results will help you decide how hot, cold, wet, or windy it might be!

Date:

Astronomy

Nov. 28, 2012 Rise Set
Actual Time 7:42 AM EST 5:20 PM EST
Civil Twilight 7:12 AM EST 5:50 PM EST
Nautical Twilight 6:39 AM EST 6:23 PM EST
Astronomical Twilight 6:06 AM EST 6:55 PM EST
Moon 5:34 PM EST (11/28) 7:39 AM EST (11/28)
Length of Visible Light 10h 37m
Length of Day
9h 38m
Full, 100% of the Moon is Illuminated
Nov 28
Full
Dec 6
Last Quarter
Dec 13
New
Dec 20
First Quarter
Dec 28
Full

Hourly Weather History & Observations

Time (EST) Temp. Windchill Dew Point Humidity Pressure Visibility Wind Dir Wind Speed Gust Speed Precip Events Conditions
12:53 AM 28.0 °F - 23.0 °F 81% 30.32 in 8.0 mi Calm Calm - N/A   Clear
1:53 AM 28.9 °F 25.2 °F 24.1 °F 82% 30.32 in 9.0 mi SW 3.5 mph - N/A   Overcast
2:53 AM 27.0 °F 20.5 °F 21.9 °F 81% 30.31 in 9.0 mi SW 5.8 mph - N/A   Clear
3:53 AM 27.0 °F 23.0 °F 21.9 °F 81% 30.33 in 9.0 mi WSW 3.5 mph - N/A   Clear
4:53 AM 25.0 °F 19.3 °F 21.0 °F 85% 30.33 in 8.0 mi SW 4.6 mph - N/A   Clear
5:53 AM 25.0 °F 19.3 °F 21.0 °F 85% 30.34 in 8.0 mi SW 4.6 mph - N/A   Clear
6:53 AM 25.0 °F 19.3 °F 21.0 °F 85% 30.35 in 8.0 mi SSW 4.6 mph - N/A   Clear
7:53 AM 24.1 °F 17.0 °F 19.9 °F 84% 30.38 in 6.0 mi SSW 5.8 mph - N/A   Clear
8:53 AM 28.9 °F 21.9 °F 24.1 °F 82% 30.39 in 6.0 mi SW 6.9 mph - N/A   Haze
9:53 AM 32.0 °F 25.6 °F 25.0 °F 75% 30.41 in 6.0 mi West 6.9 mph - N/A   Haze
10:53 AM 36.0 °F 31.1 °F 25.0 °F 64% 30.42 in 8.0 mi WSW 5.8 mph - N/A   Clear
11:53 AM 39.9 °F 35.1 °F 24.1 °F 53% 30.41 in 10.0 mi Variable 6.9 mph - N/A   Clear
12:53 PM 42.1 °F 37.7 °F 23.0 °F 47% 30.40 in 10.0 mi West 6.9 mph - N/A   Clear
1:53 PM 44.1 °F 38.6 °F 24.1 °F 45% 30.38 in 10.0 mi West 10.4 mph - N/A   Clear
2:53 PM 44.1 °F 39.5 °F 25.0 °F 47% 30.37 in 10.0 mi West 8.1 mph - N/A   Clear
3:53 PM 44.1 °F 40.1 °F 25.0 °F 47% 30.37 in 10.0 mi WSW 6.9 mph - N/A   Clear
4:53 PM 41.0 °F 37.1 °F 26.1 °F 55% 30.38 in 10.0 mi West 5.8 mph - N/A   Clear
5:53 PM 39.0 °F - 24.1 °F 55% 30.37 in 10.0 mi Calm Calm - N/A   Clear
6:53 PM 34.0 °F - 24.1 °F 67% 30.38 in 10.0 mi Calm Calm - N/A   Clear
7:53 PM 33.1 °F - 24.1 °F 70% 30.40 in 10.0 mi Calm Calm - N/A   Clear
8:53 PM 28.0 °F 21.7 °F 21.9 °F 78% 30.39 in 10.0 mi SSE 5.8 mph - N/A   Clear
9:53 PM 26.1 °F 21.9 °F 21.0 °F 81% 30.38 in 10.0 mi SE 3.5 mph - N/A   Clear
10:53 PM 27.0 °F 23.0 °F 21.9 °F 81% 30.38 in 9.0 mi South 3.5 mph - N/A   Clear
11:53 PM 28.0 °F 24.2 °F 21.9 °F 78% 30.38 in 8.0 mi SSE 3.5 mph - N/A   Clear